| time (UTC) | temp F | wind direction | speed knots | gust knots | rain 1hr in | rain 24hr in | rain mn in | humidity % | barometer mb |
| 20260902044106 | 62 | 231 | 0.9 | 3.5 | 0.00 | 0.00 | 0.00 | 78 | 1017.0 |
| 20260902043035 | 62 | 230 | 1.7 | 4.3 | 0.00 | 0.00 | 0.00 | 77 | 1016.9 |
| 20260902042832 | 62 | 231 | 2.6 | 6.1 | 0.00 | 0.00 | 0.00 | 76 | 1016.9 |
| 20260902042330 | 62 | 231 | 2.6 | 6.1 | 0.00 | 0.00 | 0.00 | 77 | 1016.9 |
| 20260902041535 | 62 | 216 | 1.7 | 6.1 | 0.00 | 0.00 | 0.00 | 76 | 1016.8 |
| 20260902041327 | 62 | 252 | 0.9 | 6.1 | 0.00 | 0.00 | 0.00 | 76 | 1016.7 |
| 20260902040548 | 62 | 241 | 1.7 | 6.1 | 0.00 | 0.00 | 0.00 | 76 | 1016.8 |
| 20260902040047 | 62 | 225 | 2.6 | 6.1 | 0.00 | 0.00 | 0.00 | 76 | 1016.8 |
| 20260902035534 | 62 | 262 | 1.7 | 6.1 | 0.00 | 0.00 | 0.00 | 75 | 1016.7 |
| 20260902035035 | 62 | 262 | 1.7 | 6.1 | 0.00 | 0.00 | 0.00 | 74 | 1016.7 |
| 20260902034531 | 63 | 258 | 2.6 | 7.8 | 0.00 | 0.00 | 0.00 | 74 | 1016.7 |
| 20260902034031 | 63 | 230 | 1.7 | 7.8 | 0.00 | 0.00 | 0.00 | 73 | 1016.6 |
| 20260902033530 | 63 | 254 | 0.9 | 5.2 | 0.00 | 0.00 | 0.00 | 73 | 1016.7 |
| 20260902033031 | 63 | 235 | 2.6 | 10.4 | 0.00 | 0.00 | 0.00 | 73 | 1016.6 |
| 20260902032531 | 63 | 246 | 2.6 | 10.4 | 0.00 | 0.00 | 0.00 | 72 | 1016.5 |
| 20260902032326 | 63 | 264 | 2.6 | 10.4 | 0.00 | 0.00 | 0.00 | 72 | 1016.4 |
| 20260902031531 | 63 | 254 | 1.7 | 10.4 | 0.00 | 0.00 | 0.00 | 71 | 1016.2 |
| 20260902031030 | 63 | 249 | 2.6 | 9.6 | 0.00 | 0.00 | 0.00 | 70 | 1016.2 |
| 20260902030823 | 64 | 253 | 2.6 | 9.6 | 0.00 | 0.00 | 0.00 | 69 | 1016.1 |
| 20260902030319 | 64 | 226 | 1.7 | 8.7 | 0.00 | 0.00 | 0.00 | 68 | 1016.0 |
| 20260902025526 | 64 | 263 | 0.9 | 5.2 | 0.00 | 0.00 | 0.00 | 67 | 1016.1 |
| 20260902025026 | 64 | 259 | 1.7 | 8.7 | 0.00 | 0.00 | 0.00 | 66 | 1016.0 |
| 20260902024527 | 64 | 261 | 2.6 | 8.7 | 0.00 | 0.00 | 0.00 | 66 | 1016.0 |
| 20260902024038 | 64 | 252 | 3.5 | 10.4 | 0.00 | 0.00 | 0.00 | 65 | 1015.9 |
| 20260902023527 | 64 | 212 | 3.5 | 10.4 | 0.00 | 0.00 | 0.00 | 65 | 1015.9 |
| 20260902023027 | 65 | 312 | 3.5 | 10.4 | 0.00 | 0.00 | 0.00 | 64 | 1015.8 |
| 20260902022527 | 65 | 226 | 4.3 | 13.0 | 0.00 | 0.00 | 0.00 | 63 | 1015.7 |
| 20260902022027 | 65 | 210 | 4.3 | 13.0 | 0.00 | 0.00 | 0.00 | 63 | 1015.7 |
| 20260902021526 | 65 | 239 | 2.6 | 9.6 | 0.00 | 0.00 | 0.00 | 62 | 1015.7 |
| 20260902021020 | 65 | 242 | 3.5 | 11.3 | 0.00 | 0.00 | 0.00 | 61 | 1015.6 |
| 20260902020810 | 65 | 285 | 5.2 | 11.3 | 0.00 | 0.00 | 0.00 | 60 | 1015.6 |
| 20260902020008 | 66 | 212 | 4.3 | 11.3 | 0.00 | 0.00 | 0.00 | 60 | 1015.5 |
| 20260902015503 | 66 | 251 | 5.2 | 12.2 | 0.00 | 0.00 | 0.00 | 60 | 1015.5 |
| 20260902014956 | 66 | 241 | 6.1 | 15.6 | 0.00 | 0.00 | 0.00 | 60 | 1015.4 |
| 20260902014451 | 67 | 251 | 6.1 | 15.6 | 0.00 | 0.00 | 0.00 | 60 | 1015.4 |
| 20260902013945 | 67 | 221 | 7.0 | 14.8 | 0.00 | 0.00 | 0.00 | 59 | 1015.3 |
| 20260902013438 | 67 | 259 | 5.2 | 13.0 | 0.00 | 0.00 | 0.00 | 58 | 1015.3 |
| 20260902012933 | 67 | 275 | 6.1 | 13.9 | 0.00 | 0.00 | 0.00 | 57 | 1015.3 |
| 20260902012426 | 67 | 261 | 6.1 | 13.9 | 0.00 | 0.00 | 0.00 | 55 | 1015.3 |
| 20260902011921 | 68 | 261 | 6.1 | 12.2 | 0.00 | 0.00 | 0.00 | 55 | 1015.3 |
| 20260902011414 | 68 | 284 | 4.3 | 14.8 | 0.00 | 0.00 | 0.00 | 54 | 1015.3 |
| 20260902011204 | 68 | 283 | 5.2 | 12.2 | 0.00 | 0.00 | 0.00 | 54 | 1015.2 |
| 20260902010402 | 68 | 260 | 6.1 | 18.2 | 0.00 | 0.00 | 0.00 | 54 | 1015.2 |
| 20260902005856 | 68 | 249 | 6.1 | 18.2 | 0.00 | 0.00 | 0.00 | 54 | 1015.2 |
| 20260902005351 | 68 | 233 | 7.0 | 18.2 | 0.00 | 0.00 | 0.00 | 54 | 1015.2 |
| 20260902004845 | 69 | 249 | 6.1 | 18.2 | 0.00 | 0.00 | 0.00 | 53 | 1015.3 |
| 20260902004338 | 69 | 234 | 6.1 | 13.9 | 0.00 | 0.00 | 0.00 | 52 | 1015.2 |
| 20260902003833 | 69 | 268 | 6.1 | 17.4 | 0.00 | 0.00 | 0.00 | 50 | 1015.2 |
| 20260902003326 | 69 | 203 | 5.2 | 17.4 | 0.00 | 0.00 | 0.00 | 50 | 1015.2 |
| 20260902002821 | 70 | 268 | 6.1 | 15.6 | 0.00 | 0.00 | 0.00 | 50 | 1015.2 |
| 20260902002314 | 70 | 214 | 5.2 | 14.8 | 0.00 | 0.00 | 0.00 | 49 | 1015.2 |
| 20260902001808 | 70 | 218 | 5.2 | 13.0 | 0.00 | 0.00 | 0.00 | 49 | 1015.2 |
| 20260902001302 | 71 | 189 | 5.2 | 13.0 | 0.00 | 0.00 | 0.00 | 48 | 1015.2 |
| 20260902001052 | 70 | 195 | 6.1 | 11.3 | 0.00 | 0.00 | 0.00 | 49 | 1015.2 |
| 20260902000250 | 71 | 220 | 6.1 | 18.2 | 0.00 | 0.00 | 0.00 | 48 | 1015.2 |
| 20260901235745 | 71 | 226 | 6.1 | 15.6 | 0.00 | 0.00 | 0.00 | 47 | 1015.2 |
| 20260901235239 | 71 | 271 | 6.1 | 13.9 | 0.00 | 0.00 | 0.00 | 48 | 1015.2 |
| 20260901234733 | 72 | 280 | 7.0 | 13.9 | 0.00 | 0.00 | 0.00 | 47 | 1015.2 |
| 20260901234227 | 72 | 208 | 6.1 | 13.9 | 0.00 | 0.00 | 0.00 | 48 | 1015.1 |
| 20260901233721 | 71 | 204 | 6.1 | 13.9 | 0.00 | 0.00 | 0.00 | 47 | 1015.2 |
| 20260901233215 | 71 | 235 | 7.8 | 14.8 | 0.00 | 0.00 | 0.00 | 47 | 1015.2 |
| 20260901233003 | 71 | 216 | 7.8 | 14.8 | 0.00 | 0.00 | 0.00 | 47 | 1015.2 |
| 20260901232203 | 71 | 275 | 7.0 | 13.9 | 0.00 | 0.00 | 0.00 | 46 | 1015.2 |
| 20260901231657 | 71 | 235 | 7.8 | 16.5 | 0.00 | 0.00 | 0.00 | 47 | 1015.3 |
| 20260901231150 | 72 | 206 | 7.0 | 16.5 | 0.00 | 0.00 | 0.00 | 47 | 1015.3 |
| 20260901230645 | 72 | 233 | 7.0 | 14.8 | 0.00 | 0.00 | 0.00 | 47 | 1015.4 |
| 20260901230449 | 72 | 218 | 7.0 | 14.8 | 0.00 | 0.00 | 0.00 | 46 | 1015.4 |
| 20260901225632 | 72 | 235 | 6.1 | 13.9 | 0.00 | 0.00 | 0.00 | 46 | 1015.4 |
| 20260901225127 | 72 | 271 | 6.1 | 13.9 | 0.00 | 0.00 | 0.00 | 47 | 1015.5 |
| 20260901224620 | 72 | 231 | 6.1 | 13.9 | 0.00 | 0.00 | 0.00 | 47 | 1015.4 |
| 20260901224114 | 71 | 208 | 5.2 | 14.8 | 0.00 | 0.00 | 0.00 | 48 | 1015.3 |
| 20260901223901 | 72 | 253 | 5.2 | 14.8 | 0.00 | 0.00 | 0.00 | 47 | 1015.4 |
| 20260901223116 | 71 | 211 | 6.1 | 13.0 | 0.00 | 0.00 | 0.00 | 48 | 1015.4 |
| 20260901222557 | 72 | 236 | 6.1 | 14.8 | 0.00 | 0.00 | 0.00 | 47 | 1015.4 |
| 20260901222051 | 72 | 258 | 6.1 | 14.8 | 0.00 | 0.00 | 0.00 | 47 | 1015.5 |
| 20260901221544 | 72 | 254 | 6.1 | 13.9 | 0.00 | 0.00 | 0.00 | 47 | 1015.5 |
| 20260901221038 | 71 | 199 | 6.1 | 13.0 | 0.00 | 0.00 | 0.00 | 49 | 1015.6 |
| 20260901220533 | 72 | 264 | 7.0 | 13.0 | 0.00 | 0.00 | 0.00 | 48 | 1015.7 |
| 20260901220026 | 72 | 231 | 7.0 | 13.0 | 0.00 | 0.00 | 0.00 | 48 | 1015.7 |
| 20260901215521 | 72 | 248 | 6.1 | 13.0 | 0.00 | 0.00 | 0.00 | 48 | 1015.8 |
| 20260901215014 | 72 | 233 | 6.1 | 14.8 | 0.00 | 0.00 | 0.00 | 47 | 1015.8 |
| 20260901214802 | 72 | 298 | 6.1 | 14.8 | 0.00 | 0.00 | 0.00 | 47 | 1015.8 |
| 20260901214003 | 72 | 235 | 6.1 | 12.2 | 0.00 | 0.00 | 0.00 | 46 | 1015.8 |
| 20260901213456 | 72 | 236 | 6.1 | 12.2 | 0.00 | 0.00 | 0.00 | 45 | 1015.9 |
| 20260901212951 | 72 | 241 | 6.1 | 13.0 | 0.00 | 0.00 | 0.00 | 45 | 1015.7 |
| 20260901212738 | 72 | 253 | 7.0 | 13.0 | 0.00 | 0.00 | 0.00 | 47 | 1015.8 |
| 20260901211939 | 72 | 253 | 7.0 | 14.8 | 0.00 | 0.00 | 0.00 | 46 | 1015.8 |
| 20260901211432 | 72 | 256 | 6.1 | 14.8 | 0.00 | 0.00 | 0.00 | 47 | 1015.7 |
| 20260901211016 | 72 | 186 | 6.1 | 13.9 | 0.00 | 0.00 | 0.00 | 46 | 1015.7 |
| 20260901210956 | 72 | 261 | 5.2 | 11.3 | 0.00 | 0.00 | 0.00 | 45 | 1015.8 |
| 20260901205915 | 71 | 211 | 5.2 | 13.9 | 0.00 | 0.00 | 0.00 | 46 | 1015.8 |
| 20260901205409 | 71 | 235 | 4.3 | 11.3 | 0.00 | 0.00 | 0.00 | 46 | 1015.7 |
| 20260901204951 | 71 | 291 | 5.2 | 13.0 | 0.00 | 0.00 | 0.00 | 47 | 1015.7 |
| 20260901204930 | 72 | 222 | 4.3 | 13.0 | 0.00 | 0.00 | 0.00 | 46 | 1015.7 |
| 20260901203850 | 71 | 224 | 6.1 | 13.9 | 0.00 | 0.00 | 0.00 | 48 | 1015.8 |
| 20260901203639 | 71 | 293 | 6.1 | 13.9 | 0.00 | 0.00 | 0.00 | 47 | 1015.9 |
| 20260901202845 | 71 | 256 | 6.1 | 12.2 | 0.00 | 0.00 | 0.00 | 48 | 1016.0 |
| 20260901202343 | 70 | 186 | 6.1 | 12.2 | 0.00 | 0.00 | 0.00 | 50 | 1016.1 |
| 20260901201843 | 70 | 210 | 5.2 | 11.3 | 0.00 | 0.00 | 0.00 | 50 | 1016.2 |
| 20260901201344 | 70 | 280 | 4.3 | 10.4 | 0.00 | 0.00 | 0.00 | 50 | 1016.4 |
| 20260901200843 | 69 | 269 | 5.2 | 12.2 | 0.00 | 0.00 | 0.00 | 50 | 1016.3 |
| 20260901200344 | 70 | 250 | 6.1 | 12.2 | 0.00 | 0.00 | 0.00 | 48 | 1016.4 |
| 20260901195844 | 71 | 234 | 5.2 | 11.3 | 0.00 | 0.00 | 0.00 | 49 | 1016.4 |
| 20260901195344 | 71 | 265 | 5.2 | 11.3 | 0.00 | 0.00 | 0.00 | 49 | 1016.4 |
| 20260901194844 | 70 | 208 | 5.2 | 11.3 | 0.00 | 0.00 | 0.00 | 50 | 1016.5 |
| 20260901194344 | 69 | 237 | 5.2 | 11.3 | 0.00 | 0.00 | 0.00 | 50 | 1016.5 |
| 20260901193844 | 69 | 214 | 5.2 | 9.6 | 0.00 | 0.00 | 0.00 | 51 | 1016.6 |
| 20260901193340 | 69 | 256 | 4.3 | 10.4 | 0.00 | 0.00 | 0.00 | 51 | 1016.5 |
| 20260901192841 | 69 | 276 | 4.3 | 10.4 | 0.00 | 0.00 | 0.00 | 52 | 1016.6 |
| 20260901192354 | 68 | 271 | 5.2 | 8.7 | 0.00 | 0.00 | 0.00 | 54 | 1016.6 |
| 20260901191841 | 69 | 258 | 5.2 | 11.3 | 0.00 | 0.00 | 0.00 | 54 | 1016.6 |
| 20260901191356 | 69 | 214 | 5.2 | 12.2 | 0.00 | 0.00 | 0.00 | 53 | 1016.7 |
| 20260901190841 | 69 | 225 | 5.2 | 12.2 | 0.00 | 0.00 | 0.00 | 54 | 1016.6 |
| 20260901190342 | 69 | 211 | 5.2 | 11.3 | 0.00 | 0.00 | 0.00 | 55 | 1016.6 |
| 20260901190133 | 69 | 256 | 4.3 | 11.3 | 0.00 | 0.00 | 0.00 | 55 | 1016.7 |
| 20260901185330 | 69 | 245 | 4.3 | 11.3 | 0.00 | 0.00 | 0.00 | 55 | 1016.7 |
| 20260901184824 | 69 | 307 | 3.5 | 10.4 | 0.00 | 0.00 | 0.00 | 56 | 1016.8 |
| 20260901184612 | 67 | 238 | 3.5 | 10.4 | 0.00 | 0.00 | 0.00 | 57 | 1016.7 |
| 20260901183812 | 67 | 248 | 4.3 | 10.4 | 0.00 | 0.00 | 0.00 | 56 | 1016.8 |
| 20260901183306 | 68 | 227 | 4.3 | 11.3 | 0.00 | 0.00 | 0.00 | 57 | 1016.8 |
| 20260901182800 | 67 | 270 | 4.3 | 11.3 | 0.00 | 0.00 | 0.00 | 56 | 1016.8 |
| 20260901182253 | 67 | 266 | 4.3 | 9.6 | 0.00 | 0.00 | 0.00 | 57 | 1016.8 |
| 20260901182041 | 67 | 257 | 5.2 | 11.3 | 0.00 | 0.00 | 0.00 | 58 | 1016.7 |
| 20260901181242 | 67 | 219 | 3.5 | 11.3 | 0.00 | 0.00 | 0.00 | 57 | 1016.8 |
| 20260901180736 | 67 | 272 | 2.6 | 7.0 | 0.00 | 0.00 | 0.00 | 58 | 1016.7 |
| 20260901180230 | 66 | 253 | 2.6 | 8.7 | 0.00 | 0.00 | 0.00 | 57 | 1016.7 |
| 20260901175724 | 65 | 249 | 2.6 | 8.7 | 0.00 | 0.00 | 0.00 | 59 | 1016.7 |
| 20260901175218 | 65 | 240 | 3.5 | 9.6 | 0.00 | 0.00 | 0.00 | 58 | 1016.7 |
| 20260901174711 | 66 | 262 | 4.3 | 9.6 | 0.00 | 0.00 | 0.00 | 57 | 1016.6 |
| 20260901174458 | 66 | 266 | 4.3 | 9.6 | 0.00 | 0.00 | 0.00 | 57 | 1016.5 |
| 20260901173700 | 67 | 221 | 5.2 | 12.2 | 0.00 | 0.00 | 0.00 | 56 | 1016.5 |
| 20260901173447 | 68 | 247 | 4.3 | 12.2 | 0.00 | 0.00 | 0.00 | 55 | 1016.5 |
| 20260901172648 | 67 | 237 | 1.7 | 7.8 | 0.00 | 0.00 | 0.00 | 58 | 1016.4 |
| 20260901172451 | 65 | 257 | 2.6 | 7.8 | 0.00 | 0.00 | 0.00 | 60 | 1016.4 |
| 20260901171635 | 65 | 262 | 3.5 | 9.6 | 0.00 | 0.00 | 0.00 | 59 | 1016.3 |
| 20260901171129 | 64 | 239 | 4.3 | 11.3 | 0.00 | 0.00 | 0.00 | 59 | 1016.2 |
| 20260901170623 | 65 | 252 | 3.5 | 11.3 | 0.00 | 0.00 | 0.00 | 60 | 1016.2 |
| 20260901170122 | 65 | 235 | 2.6 | 9.6 | 0.00 | 0.00 | 0.00 | 61 | 1016.2 |
| 20260901165611 | 65 | 245 | 2.6 | 7.8 | 0.00 | 0.00 | 0.00 | 63 | 1016.1 |
| 20260901165106 | 65 | 247 | 3.5 | 8.7 | 0.00 | 0.00 | 0.00 | 62 | 1016.2 |
| 20260901164559 | 64 | 214 | 4.3 | 8.7 | 0.00 | 0.00 | 0.00 | 63 | 1016.2 |
| 20260901164054 | 64 | 202 | 3.5 | 7.8 | 0.00 | 0.00 | 0.00 | 63 | 1016.2 |
| 20260901163547 | 64 | 259 | 4.3 | 9.6 | 0.00 | 0.00 | 0.00 | 64 | 1016.1 |
| 20260901163041 | 64 | 223 | 5.2 | 12.2 | 0.00 | 0.00 | 0.00 | 63 | 1016.2 |
| 20260901162536 | 64 | 218 | 5.2 | 12.2 | 0.00 | 0.00 | 0.00 | 63 | 1016.1 |
| 20260901162029 | 64 | 218 | 5.2 | 11.3 | 0.00 | 0.00 | 0.00 | 63 | 1016.1 |
| 20260901161524 | 64 | 183 | 4.3 | 11.3 | 0.00 | 0.00 | 0.00 | 64 | 1016.1 |
| 20260901161018 | 64 | 228 | 2.6 | 9.6 | 0.00 | 0.00 | 0.00 | 64 | 1016.1 |
| 20260901160513 | 64 | 227 | 1.7 | 5.2 | 0.00 | 0.00 | 0.00 | 66 | 1016.1 |
| 20260901160302 | 63 | 235 | 3.5 | 9.6 | 0.00 | 0.00 | 0.00 | 67 | 1016.0 |
| 20260901155500 | 63 | 230 | 5.2 | 13.0 | 0.00 | 0.00 | 0.00 | 67 | 1016.0 |
| 20260901155248 | 63 | 212 | 5.2 | 13.0 | 0.00 | 0.00 | 0.00 | 67 | 1015.8 |
| 20260901154447 | 63 | 199 | 5.2 | 9.6 | 0.00 | 0.00 | 0.00 | 67 | 1015.8 |
| 20260901153942 | 63 | 215 | 5.2 | 9.6 | 0.00 | 0.00 | 0.00 | 68 | 1015.7 |
| 20260901153436 | 63 | 214 | 5.2 | 12.2 | 0.00 | 0.00 | 0.00 | 68 | 1015.6 |
| 20260901152930 | 63 | 164 | 4.3 | 12.2 | 0.00 | 0.00 | 0.00 | 69 | 1015.6 |
| 20260901152424 | 62 | 201 | 3.5 | 7.8 | 0.00 | 0.00 | 0.00 | 69 | 1015.6 |
| 20260901151917 | 62 | 229 | 4.3 | 8.7 | 0.00 | 0.00 | 0.00 | 69 | 1015.6 |
| 20260901151411 | 62 | 197 | 4.3 | 9.6 | 0.00 | 0.00 | 0.00 | 69 | 1015.6 |
| 20260901150905 | 62 | 201 | 3.5 | 9.6 | 0.00 | 0.00 | 0.00 | 69 | 1015.5 |
| 20260901150359 | 62 | 245 | 2.6 | 7.8 | 0.00 | 0.00 | 0.00 | 69 | 1015.5 |
| 20260901145857 | 61 | 201 | 2.6 | 7.8 | 0.00 | 0.00 | 0.00 | 69 | 1015.4 |
| 20260901145356 | 61 | 206 | 2.6 | 6.1 | 0.00 | 0.00 | 0.00 | 69 | 1015.4 |
| 20260901144907 | 61 | 200 | 2.6 | 6.1 | 0.00 | 0.00 | 0.00 | 69 | 1015.4 |
| 20260901144355 | 61 | 194 | 1.7 | 5.2 | 0.00 | 0.00 | 0.00 | 69 | 1015.3 |
| 20260901143945 | 61 | 185 | 2.6 | 7.8 | 0.00 | 0.00 | 0.00 | 70 | 1015.2 |
| 20260901143926 | 61 | 195 | 2.6 | 7.8 | 0.00 | 0.00 | 0.00 | 70 | 1015.3 |
| 20260901142853 | 61 | 209 | 2.6 | 6.1 | 0.00 | 0.00 | 0.00 | 70 | 1015.1 |
| 20260901142353 | 61 | 208 | 1.7 | 6.1 | 0.00 | 0.00 | 0.00 | 70 | 1015.1 |
| 20260901141945 | 60 | 210 | 1.7 | 7.0 | 0.00 | 0.00 | 0.00 | 71 | 1014.9 |
| 20260901141927 | 61 | 209 | 1.7 | 5.2 | 0.00 | 0.00 | 0.00 | 70 | 1015.0 |
| 20260901140851 | 60 | 175 | 0.9 | 7.0 | 0.00 | 0.00 | 0.00 | 71 | 1014.9 |
| 20260901140350 | 60 | 211 | 0.0 | 2.6 | 0.00 | 0.00 | 0.00 | 71 | 1014.8 |
| 20260901135846 | 60 | 211 | 0.9 | 4.3 | 0.00 | 0.00 | 0.00 | 71 | 1014.7 |
| 20260901135347 | 60 | 212 | 1.7 | 4.3 | 0.00 | 0.00 | 0.00 | 71 | 1014.6 |
| 20260901134847 | 60 | 212 | 0.9 | 3.5 | 0.00 | 0.00 | 0.00 | 71 | 1014.6 |
| 20260901134345 | 60 | 212 | 0.9 | 3.5 | 0.00 | 0.00 | 0.00 | 71 | 1014.5 |
| 20260901133846 | 60 | 212 | 1.7 | 5.2 | 0.00 | 0.00 | 0.00 | 71 | 1014.5 |
| 20260901133342 | 60 | 212 | 1.7 | 5.2 | 0.00 | 0.00 | 0.00 | 71 | 1014.4 |
| 20260901132844 | 60 | 182 | 0.0 | 3.5 | 0.00 | 0.00 | 0.00 | 72 | 1014.4 |
| 20260901132337 | 60 | 183 | 0.9 | 2.6 | 0.00 | 0.00 | 0.00 | 72 | 1014.4 |
| 20260901131831 | 60 | 183 | 0.9 | 2.6 | 0.00 | 0.00 | 0.00 | 72 | 1014.4 |
| 20260901131326 | 60 | 183 | 0.9 | 3.5 | 0.00 | 0.00 | 0.00 | 72 | 1014.4 |
| 20260901131131 | 60 | 183 | 0.9 | 3.5 | 0.00 | 0.00 | 0.00 | 72 | 1014.3 |
| 20260901130327 | 60 | 183 | 0.9 | 3.5 | 0.00 | 0.00 | 0.00 | 72 | 1014.3 |
| 20260901130115 | 60 | 183 | 0.9 | 3.5 | 0.00 | 0.00 | 0.00 | 72 | 1014.4 |
| 20260901125340 | 60 | 183 | 0.0 | 2.6 | 0.00 | 0.00 | 0.00 | 73 | 1014.4 |
| 20260901124826 | 60 | 183 | 0.0 | 0.9 | 0.00 | 0.00 | 0.00 | 73 | 1014.4 |
| 20260901124326 | 60 | 183 | 0.9 | 3.5 | 0.00 | 0.00 | 0.00 | 73 | 1014.3 |
| 20260901123826 | 60 | 183 | 0.9 | 3.5 | 0.00 | 0.00 | 0.00 | 73 | 1014.2 |
| 20260901123327 | 60 | 182 | 0.0 | 3.5 | 0.00 | 0.00 | 0.00 | 73 | 1014.1 |
| 20260901122828 | 60 | 183 | 0.0 | 0.9 | 0.00 | 0.00 | 0.00 | 73 | 1014.1 |
| 20260901122327 | 60 | 183 | 0.0 | 3.5 | 0.00 | 0.00 | 0.00 | 72 | 1014.1 |
| 20260901121828 | 60 | 183 | 0.9 | 5.2 | 0.00 | 0.00 | 0.00 | 72 | 1014.1 |
| 20260901121326 | 60 | 183 | 1.7 | 5.2 | 0.00 | 0.00 | 0.00 | 72 | 1014.0 |
| 20260901121116 | 60 | 187 | 1.7 | 4.3 | 0.00 | 0.00 | 0.00 | 72 | 1014.0 |
| 20260901120617 | 60 | 187 | 0.9 | 4.3 | 0.00 | 0.00 | 0.00 | 72 | 1014.0 |
| 20260901120122 | 60 | 187 | 0.9 | 5.2 | 0.00 | 0.00 | 0.00 | 72 | 1013.9 |
| 20260901115324 | 60 | 189 | 0.9 | 5.2 | 0.00 | 0.00 | 0.00 | 72 | 1014.1 |
| 20260901114824 | 60 | 189 | 1.7 | 5.2 | 0.00 | 0.00 | 0.00 | 73 | 1014.1 |
| 20260901114325 | 60 | 189 | 0.9 | 5.2 | 0.00 | 0.00 | 0.00 | 73 | 1014.1 |
| 20260901113819 | 60 | 249 | 0.9 | 4.3 | 0.00 | 0.00 | 0.00 | 72 | 1014.1 |
| 20260901113312 | 60 | 249 | 1.7 | 4.3 | 0.00 | 0.00 | 0.00 | 72 | 1014.2 |
| 20260901112807 | 60 | 206 | 1.7 | 6.1 | 0.00 | 0.00 | 0.00 | 72 | 1014.1 |
| 20260901112300 | 60 | 195 | 1.7 | 6.1 | 0.00 | 0.00 | 0.00 | 72 | 1014.1 |
| 20260901111755 | 60 | 193 | 0.9 | 3.5 | 0.00 | 0.00 | 0.00 | 72 | 1014.2 |
| 20260901111249 | 60 | 193 | 0.9 | 3.5 | 0.00 | 0.00 | 0.00 | 71 | 1014.2 |
| 20260901110755 | 60 | 207 | 0.9 | 5.2 | 0.00 | 0.00 | 0.00 | 71 | 1014.3 |
| 20260901110236 | 60 | 208 | 2.6 | 6.1 | 0.00 | 0.00 | 0.00 | 71 | 1014.2 |
| 20260901105730 | 60 | 208 | 2.6 | 6.1 | 0.00 | 0.00 | 0.00 | 71 | 1014.1 |
| 20260901105225 | 60 | 247 | 0.9 | 6.1 | 0.00 | 0.00 | 0.00 | 71 | 1014.1 |
| 20260901104719 | 60 | 233 | 0.0 | 3.5 | 0.00 | 0.00 | 0.00 | 71 | 1014.1 |
| 20260901104213 | 60 | 231 | 0.0 | 3.5 | 0.00 | 0.00 | 0.00 | 71 | 1014.2 |
| 20260901103708 | 60 | 231 | 0.9 | 2.6 | 0.00 | 0.00 | 0.00 | 71 | 1014.1 |
| 20260901103200 | 60 | 231 | 0.9 | 3.5 | 0.00 | 0.00 | 0.00 | 71 | 1014.1 |
| 20260901102754 | 60 | 231 | 0.9 | 5.2 | 0.00 | 0.00 | 0.00 | 71 | 1014.0 |
| 20260901102730 | 60 | 231 | 0.0 | 3.5 | 0.00 | 0.00 | 0.00 | 71 | 1014.0 |
| 20260901101643 | 60 | 231 | 0.9 | 5.2 | 0.00 | 0.00 | 0.00 | 71 | 1014.0 |
| 20260901101136 | 60 | 209 | 0.0 | 2.6 | 0.00 | 0.00 | 0.00 | 71 | 1014.0 |
| 20260901100631 | 60 | 208 | 0.0 | 2.6 | 0.00 | 0.00 | 0.00 | 71 | 1013.9 |
| 20260901100125 | 60 | 208 | 0.0 | 0.0 | 0.00 | 0.00 | 0.00 | 71 | 1013.9 |
| 20260901095619 | 60 | 208 | 0.0 | 2.6 | 0.00 | 0.00 | 0.00 | 71 | 1013.9 |
| 20260901095112 | 60 | 208 | 0.0 | 2.6 | 0.00 | 0.00 | 0.00 | 71 | 1013.9 |
| 20260901094607 | 60 | 208 | 0.0 | 3.5 | 0.00 | 0.00 | 0.00 | 71 | 1013.9 |
| 20260901094350 | 60 | 209 | 0.9 | 3.5 | 0.00 | 0.00 | 0.00 | 71 | 1013.9 |
| 20260901093555 | 60 | 208 | 0.9 | 4.3 | 0.00 | 0.00 | 0.00 | 71 | 1013.9 |
| 20260901093048 | 60 | 208 | 1.7 | 5.2 | 0.00 | 0.00 | 0.00 | 71 | 1014.0 |
| 20260901092542 | 60 | 208 | 1.7 | 5.2 | 0.00 | 0.00 | 0.00 | 71 | 1014.0 |
| 20260901092037 | 60 | 209 | 1.7 | 5.2 | 0.00 | 0.00 | 0.00 | 71 | 1014.1 |
| 20260901091530 | 60 | 209 | 1.7 | 4.3 | 0.00 | 0.00 | 0.00 | 71 | 1014.0 |
| 20260901091025 | 60 | 208 | 1.7 | 6.1 | 0.00 | 0.00 | 0.00 | 71 | 1014.1 |
| 20260901090812 | 60 | 219 | 2.6 | 6.1 | 0.00 | 0.00 | 0.00 | 72 | 1014.0 |
| 20260901090012 | 60 | 254 | 2.6 | 7.0 | 0.00 | 0.00 | 0.00 | 72 | 1014.1 |
| 20260901085507 | 61 | 216 | 1.7 | 7.0 | 0.00 | 0.00 | 0.00 | 72 | 1014.1 |
| 20260901085016 | 60 | 246 | 0.9 | 5.2 | 0.00 | 0.00 | 0.00 | 71 | 1014.1 |
| 20260901084455 | 60 | 234 | 1.7 | 8.7 | 0.00 | 0.00 | 0.00 | 72 | 1014.1 |
| 20260901083949 | 61 | 200 | 3.5 | 8.7 | 0.00 | 0.00 | 0.00 | 72 | 1014.0 |
| 20260901083443 | 60 | 199 | 3.5 | 8.7 | 0.00 | 0.00 | 0.00 | 71 | 1014.1 |
| 20260901082937 | 60 | 214 | 1.7 | 8.7 | 0.00 | 0.00 | 0.00 | 72 | 1014.1 |
| 20260901082431 | 60 | 227 | 0.9 | 4.3 | 0.00 | 0.00 | 0.00 | 72 | 1014.1 |
| 20260901081925 | 60 | 227 | 0.0 | 4.3 | 0.00 | 0.00 | 0.00 | 72 | 1014.1 |
| 20260901081418 | 61 | 227 | 0.0 | 1.7 | 0.00 | 0.00 | 0.00 | 72 | 1014.1 |
| 20260901080913 | 61 | 227 | 0.9 | 3.5 | 0.00 | 0.00 | 0.00 | 72 | 1014.0 |
| 20260901080406 | 60 | 227 | 0.9 | 3.5 | 0.00 | 0.00 | 0.00 | 72 | 1014.1 |
| 20260901075901 | 61 | 228 | 0.9 | 4.3 | 0.00 | 0.00 | 0.00 | 72 | 1014.1 |
| 20260901075355 | 60 | 175 | 1.7 | 7.0 | 0.00 | 0.00 | 0.00 | 72 | 1014.0 |
| 20260901074848 | 60 | 226 | 1.7 | 7.0 | 0.00 | 0.00 | 0.00 | 72 | 1014.0 |
| 20260901074343 | 61 | 226 | 0.9 | 3.5 | 0.00 | 0.00 | 0.00 | 72 | 1014.0 |
| 20260901073837 | 60 | 227 | 1.7 | 5.2 | 0.00 | 0.00 | 0.00 | 72 | 1014.0 |
| 20260901073331 | 60 | 226 | 0.9 | 5.2 | 0.00 | 0.00 | 0.00 | 72 | 1013.9 |
| 20260901072837 | 60 | 210 | 0.9 | 6.1 | 0.00 | 0.00 | 0.00 | 72 | 1014.0 |
| 20260901072610 | 60 | 209 | 1.7 | 6.1 | 0.00 | 0.00 | 0.00 | 72 | 1014.0 |
| 20260901072105 | 60 | 224 | 2.6 | 6.1 | 0.00 | 0.00 | 0.00 | 72 | 1014.0 |
| 20260901071306 | 60 | 197 | 2.6 | 6.1 | 0.00 | 0.00 | 0.00 | 72 | 1013.9 |
| 20260901070800 | 60 | 250 | 2.6 | 6.1 | 0.00 | 0.00 | 0.00 | 72 | 1013.9 |
| 20260901070254 | 60 | 258 | 3.5 | 7.8 | 0.00 | 0.00 | 0.00 | 72 | 1014.0 |
| 20260901065747 | 60 | 216 | 3.5 | 8.7 | 0.00 | 0.00 | 0.00 | 73 | 1014.0 |
| 20260901065242 | 60 | 214 | 3.5 | 8.7 | 0.00 | 0.00 | 0.00 | 73 | 1013.9 |
| 20260901064736 | 60 | 222 | 3.5 | 7.8 | 0.00 | 0.00 | 0.00 | 73 | 1014.1 |
| 20260901064229 | 60 | 247 | 3.5 | 8.7 | 0.00 | 0.00 | 0.00 | 73 | 1014.0 |
| 20260901063723 | 60 | 202 | 3.5 | 8.7 | 0.00 | 0.00 | 0.00 | 73 | 1014.0 |
| 20260901063218 | 60 | 187 | 4.3 | 9.6 | 0.00 | 0.00 | 0.00 | 73 | 1013.9 |
| 20260901062712 | 60 | 203 | 4.3 | 10.4 | 0.00 | 0.00 | 0.00 | 73 | 1013.9 |
| 20260901062205 | 60 | 268 | 5.2 | 13.9 | 0.00 | 0.00 | 0.00 | 73 | 1013.9 |
| 20260901061659 | 60 | 233 | 4.3 | 13.9 | 0.00 | 0.00 | 0.00 | 73 | 1013.9 |
| 20260901061153 | 60 | 216 | 4.3 | 8.7 | 0.00 | 0.00 | 0.00 | 72 | 1014.0 |
| 20260901060648 | 60 | 207 | 5.2 | 12.2 | 0.00 | 0.00 | 0.00 | 72 | 1014.1 |
| 20260901060451 | 60 | 256 | 7.0 | 13.9 | 0.00 | 0.00 | 0.00 | 72 | 1014.1 |
| 20260901055636 | 60 | 218 | 6.1 | 13.9 | 0.00 | 0.00 | 0.00 | 73 | 1014.1 |
| 20260901055130 | 60 | 264 | 5.2 | 13.0 | 0.00 | 0.00 | 0.00 | 73 | 1014.1 |
| 20260901054623 | 60 | 199 | 5.2 | 13.0 | 0.00 | 0.00 | 0.00 | 73 | 1014.1 |
| 20260901054412 | 60 | 206 | 6.1 | 15.6 | 0.00 | 0.00 | 0.00 | 74 | 1014.1 |
| 20260901053612 | 60 | 234 | 5.2 | 15.6 | 0.00 | 0.00 | 0.00 | 74 | 1014.1 |
| 20260901053106 | 60 | 231 | 3.5 | 9.6 | 0.00 | 0.00 | 0.00 | 74 | 1014.1 |
| 20260901052600 | 60 | 224 | 3.5 | 10.4 | 0.00 | 0.00 | 0.00 | 74 | 1014.0 |
| 20260901052054 | 60 | 227 | 3.5 | 10.4 | 0.00 | 0.00 | 0.00 | 74 | 1014.0 |
| 20260901051550 | 60 | 177 | 2.6 | 8.7 | 0.00 | 0.00 | 0.00 | 74 | 1014.0 |
| 20260901051048 | 60 | 227 | 3.5 | 8.7 | 0.00 | 0.00 | 0.00 | 74 | 1014.0 |
| 20260901050549 | 60 | 244 | 2.6 | 8.7 | 0.00 | 0.00 | 0.00 | 74 | 1014.0 |
| 20260901050101 | 60 | 235 | 1.7 | 7.8 | 0.00 | 0.00 | 0.00 | 74 | 1013.9 |
| 20260901045548 | 60 | 200 | 2.6 | 9.6 | 0.00 | 0.00 | 0.00 | 74 | 1014.0 |
| 20260901045048 | 60 | 270 | 2.6 | 9.6 | 0.00 | 0.00 | 0.00 | 74 | 1014.0 |
| 20260901044548 | 60 | 241 | 2.6 | 8.7 | 0.00 | 0.00 | 0.00 | 74 | 1014.0 |